DB0TGO-13 Weather Reports


Display with metric or nautical units.
time (UTC)temp
F
wind
direction
speed
MPH
gust
MPH
rain 1hr
in
rain 24hr
in
rain mn
in
humidity
%
barometer
mb
20260906174510 66 300 4.0 0.0 0.00 0.00 0.00 48 1020.2
20260906173009 66 280 3.0 0.0 0.00 0.00 0.00 48 1020.2
20260906171509 67 280 3.0 0.0 0.00 0.00 0.00 47 1020.2
20260906170010 67 290 4.0 0.0 0.00 0.00 0.00 47 1020.2
20260906164510 67 290 4.0 0.0 0.00 0.00 0.00 47 1020.2
20260906163009 67 300 5.0 0.0 0.00 0.00 0.00 47 1020.2
20260906161510 68 300 5.0 0.0 0.00 0.00 0.00 47 1020.3
20260906160010 68 270 7.0 0.0 0.00 0.00 0.00 47 1020.3
20260906154510 68 280 8.0 0.0 0.00 0.00 0.00 48 1020.3
20260906153009 68 280 8.0 0.0 0.00 0.00 0.00 48 1020.3
20260906151509 66 270 11.0 0.0 0.00 0.00 0.00 49 1020.4
20260906150009 66 270 11.0 0.0 0.00 0.00 0.00 49 1020.4
20260906144510 68 270 11.0 0.0 0.00 0.00 0.00 47 1020.5
20260906143009 68 280 11.0 0.0 0.00 0.00 0.00 47 1020.5
20260906141510 65 280 11.0 0.0 0.00 0.00 0.00 51 1020.6
20260906140009 65 300 8.0 0.0 0.00 0.00 0.00 51 1020.6
20260906134510 65 300 8.0 0.0 0.00 0.00 0.00 52 1020.6
20260906133009 65 310 9.0 0.0 0.00 0.00 0.00 52 1020.6
20260906131510 67 310 9.0 0.0 0.00 0.00 0.00 47 1020.7
20260906130009 67 270 11.0 0.0 0.00 0.00 0.00 47 1020.7
20260906124510 67 270 11.0 0.0 0.00 0.00 0.00 50 1020.7
20260906123009 67 280 13.0 0.0 0.00 0.00 0.00 50 1020.7
20260906121510 65 280 13.0 0.0 0.00 0.00 0.00 51 1020.6
20260906120009 65 300 10.0 0.0 0.00 0.00 0.00 51 1020.6
20260906114509 63 300 10.0 0.0 0.00 0.00 0.00 53 1020.5
20260906113010 63 300 10.0 0.0 0.00 0.00 0.00 53 1020.5
20260906111510 64 300 10.0 0.0 0.00 0.00 0.00 54 1020.3
20260906110009 64 280 11.0 0.0 0.00 0.00 0.00 54 1020.3
20260906104509 62 280 11.0 0.0 0.00 0.00 0.00 58 1020.3
20260906103010 62 310 10.0 0.0 0.00 0.00 0.00 58 1020.3
20260906101510 62 280 10.0 0.0 0.00 0.00 0.00 57 1020.3
20260906100009 62 280 10.0 0.0 0.00 0.00 0.00 57 1020.3
20260906094509 62 270 12.0 0.0 0.00 0.00 0.00 60 1020.3
20260906093010 62 270 12.0 0.0 0.00 0.00 0.00 60 1020.3
20260906091509 62 290 11.0 0.0 0.00 0.00 0.00 63 1020.1
20260906090010 62 290 11.0 0.0 0.00 0.00 0.00 63 1020.1
20260906084509 60 290 13.0 0.0 0.00 0.00 0.00 66 1019.8
20260906083010 60 290 13.0 0.0 0.00 0.00 0.00 66 1019.8
20260906081510 60 290 13.0 0.0 0.00 0.00 0.00 68 1019.4
20260906080010 60 300 10.0 0.0 0.00 0.00 0.00 68 1019.4
20260906074509 58 300 10.0 0.0 0.00 0.00 0.00 73 1019.1
20260906073010 58 290 11.0 0.0 0.00 0.00 0.00 73 1019.1
20260906071510 57 290 11.0 0.0 0.00 0.00 0.00 76 1018.9
20260906070009 57 280 10.0 0.0 0.00 0.00 0.00 76 1018.9
20260906064509 55 280 9.0 0.0 0.00 0.00 0.00 79 1018.6
20260906063009 55 280 9.0 0.0 0.00 0.00 0.00 79 1018.6
20260906061509 55 280 9.0 0.0 0.00 0.00 0.00 82 1018.2
20260906060010 55 270 7.0 0.0 0.00 0.00 0.00 82 1018.2
20260906054510 54 270 8.0 0.0 0.00 0.00 0.00 83 1017.9
20260906053009 54 270 8.0 0.0 0.00 0.00 0.00 83 1017.9
20260906051509 54 280 8.0 0.0 0.00 0.00 0.00 82 1017.7
20260906050009 54 280 8.0 0.0 0.00 0.00 0.00 82 1017.7
20260906044510 54 270 8.0 0.0 0.00 0.00 0.00 82 1017.5
20260906043009 54 270 8.0 0.0 0.00 0.00 0.00 82 1017.5
20260906041509 55 270 8.0 0.0 0.00 0.00 0.00 82 1017.4
20260906040009 55 270 8.0 0.0 0.00 0.00 0.00 82 1017.4
20260906034512 55 270 8.0 0.0 0.00 0.00 0.00 80 1017.1
20260906033010 55 280 10.0 0.0 0.00 0.00 0.00 80 1017.1
20260906031510 56 280 10.0 0.0 0.00 0.00 0.00 80 1017.1
20260906030008 56 280 10.0 0.0 0.00 0.00 0.00 80 1017.1
20260905204509 60 280 13.0 0.0 0.00 0.00 0.00 66 1014.1
20260905203009 60 280 13.0 0.0 0.00 0.00 0.00 66 1014.1
20260905201509 60 280 13.0 0.0 0.00 0.00 0.00 67 1013.8
20260905200010 60 290 14.0 0.0 0.00 0.00 0.00 67 1013.8
20260905194509 61 270 8.0 0.0 0.00 0.00 0.00 66 1013.5
20260905193009 61 270 8.0 0.0 0.00 0.00 0.00 66 1013.5
20260905191510 61 270 8.0 0.0 0.00 0.00 0.00 65 1013.1
20260905190009 61 290 10.0 0.0 0.00 0.00 0.00 65 1013.1
20260905184509 62 290 10.0 0.0 0.00 0.00 0.00 66 1012.6
20260905183010 62 270 10.0 0.0 0.00 0.00 0.00 66 1012.6
20260905181509 63 270 10.0 0.0 0.00 0.00 0.00 66 1012.2
20260905180010 63 280 13.0 0.0 0.00 0.00 0.00 66 1012.2